Location: ???????
(55.4362°N, 38.1183°E)
Time: 17:39:27
(UTC+00:00)

Cosmos 2333 Rocket - Pass Details

Date: 27 October 2021
Orbit: 837 x 865 km, 70.8° (Epoch: 04 December)

Event Time Altitude Azimuth Distance (km) Brightness Sun altitude
Exits shadow 23:17:59 17° 80° (E) 2,050 4.6 -41.1°
Drops below altitude 10° 23:19:34 10° 91° (E) 2,509 5.0 -40.9°
Sets 23:22:23 0° 103° (ESE) 3,445 5.7 -40.7°
